IRIDIUM 60              
1 25276U 98019E   03097.54439137  .00000176  00000-0  55811-4 0    38
2 25276  86.3898 293.7748 0002285  69.3968 290.7437 14.34221214262943
IRIDIUM 62              
1 25285U 98021A   03096.87792054 -.00000114  00000-0 -47941-4 0  9809
2 25285  86.3971 230.7958 0002291  69.1805 290.9629 14.34216466261806
IRIDIUM 63              
1 25286U 98021B   03097.44241266 -.00000244  00000-0 -94261-4 0  9630
2 25286  86.3979 230.5939 0002237  62.7307 297.4115 14.34214805261883
IRIDIUM 64              
1 25287U 98021C   03097.44875221 -.00000111  00000-0 -46832-4 0  9583
2 25287  86.3969 230.5696 0002230  66.0832 294.0595 14.34216881261865
IRIDIUM 65              
1 25288U 98021D   03097.45509676 -.00000156  00000-0 -62745-4 0  9561
2 25288  86.3964 230.5484 0002189  65.8226 294.3198 14.34215693261887
IRIDIUM 66              
1 25289U 98021E   03096.90329013 -.00000164  00000-0 -65791-4 0  9738
2 25289  86.3971 230.7328 0002267  69.2691 290.8744 14.34216220261803
IRIDIUM 67              
1 25290U 98021F   03096.42125349 -.00000293  00000-0 -11153-3 0  7589
2 25290  86.3969 230.9870 0002167  80.9050 279.2445 14.34214694261749
IRIDIUM 68              
1 25291U 98021G   03097.12528245 -.00000143  00000-0 -58122-4 0  9528
2 25291  86.3979 230.7185 0002240  67.4340 292.7090 14.34215593261815
IRIDIUM 69              
1 25319U 98026A   03097.12410802  .00000801  00000-0  26687-3 0  8228
2 25319  86.3934 262.1596 0003559  26.5894 333.5484 14.36405390258215
IRIDIUM 71              
1 25320U 98026B   03096.93542884  .00000707  00000-0  23166-3 0  5157
2 25320  86.3927 260.9819 0004370  77.5836 282.5852 14.37052516258331
IRIDIUM 70              
1 25342U 98032A   03096.87157523 -.00000092  00000-0 -39997-4 0  9796
2 25342  86.3977 230.8468 0002242  71.3946 288.7492 14.34217303255885
IRIDIUM 72              
1 25343U 98032B   03097.06819776 -.00000146  00000-0 -59364-4 0  9525
2 25343  86.3973 230.6968 0002209  73.8903 286.2534 14.34216112255919
IRIDIUM 73              
1 25344U 98032C   03096.93875724  .00001040  00000-0  28451-3 0  8406
2 25344  86.4418 228.4207 0003271  58.1603 301.9918 14.46329825257472
IRIDIUM 74              
1 25345U 98032D   03096.92231628 -.00000142  00000-0 -57749-4 0  9717
2 25345  86.3976 230.7971 0002234  70.2105 289.9332 14.34216861255896
IRIDIUM 75              
1 25346U 98032E   03097.49315074 -.00000082  00000-0 -36398-4 0  9629
2 25346  86.3978 230.5845 0002209  69.3938 290.7493 14.34216874256547
IRIDIUM 3               
1 25431U 98048A   03096.91939739  .00000019  00000-0 -10221-6 0  9366
2 25431  86.3914 262.4145 0002230  65.8215 294.3201 14.34218563242406
IRIDIUM 76              
1 25432U 98048B   03097.00820386  .00000229  00000-0  74532-4 0  8954
2 25432  86.3914 262.2898 0002258  59.7558 300.3861 14.34218776242408
IRIDIUM 82              
1 25467U 98051A   03097.20190858  .00000354  00000-0  77312-4 0   851
2 25467  86.5179  28.5855 0002524  66.4981 293.6484 14.54947163243113
IRIDIUM 81              
1 25468U 98051B   03096.90137999 -.00000185  00000-0 -73037-4 0  9342
2 25468  86.4001  28.7310 0002482  63.4644 296.6806 14.34215801239628
IRIDIUM 80              
1 25469U 98051C   03096.88235281 -.00000272  00000-0 -10404-3 0  9203
2 25469  86.4005  28.7371 0002665  67.9231 292.2245 14.34215536239628
IRIDIUM 77              
1 25471U 98051E   03097.19565257  .00001521  00000-0  34884-3 0   687
2 25471  86.5150  28.5872 0002324  60.2146 299.9286 14.54981980243089
IRIDIUM 2               
1 25527U 98066A   03097.53111298  .00004886  00000-0  46294-3 0   332
2 25527  85.5616 125.7914 0010644 350.4331   9.6679 14.93347389239829
IRIDIUM 86              
1 25528U 98066B   03096.78562839  .00000097  00000-0  17471-4 0   482
2 25528  86.5205 357.1209 0002715  66.1368 294.0123 14.54943142234593
IRIDIUM 84              
1 25530U 98066D   03097.43707714 -.00000006  00000-0 -93511-5 0  7884
2 25530  86.4007 356.9931 0002487  64.2109 295.9342 14.34217003233862
IRIDIUM 83              
1 25531U 98066E   03097.18971332 -.00000447  00000-0 -16686-3 0  8826
2 25531  86.4017 357.0346 0002550  68.0962 292.0500 14.34214462231189
IRIDIUM 11              
1 25577U 98074A   03097.10967517 -.00000262  00000-0 -10048-3 0  8974
2 25577  86.3908 262.2609 0002285  64.1820 295.9608 14.34214973225250
IRIDIUM 20              
1 25578U 98074B   03097.51780134  .00000180  00000-0  36838-4 0  9927
2 25578  86.5112 262.0801 0003167  53.3970 306.7520 14.54942315228558
IRIDIUM 14              
1 25777U 99032A   03096.89515222  .00000110  00000-0  20587-4 0  9216
2 25777  86.5157 230.7528 0002284  62.8883 297.2541 14.54942573202840
IRIDIUM 21              
1 25778U 99032B   03093.94406515  .00000022  00000-0  16097-6 0  8959
2 25778  86.5149 231.9912 0002279  56.6797 303.4616 14.54941870202382
IRIDIUM 90              
1 27372U 02005A   03097.53258251  .00000420  00000-0  71457-4 0  3930
2 27372  86.5752 293.8738 0008138 245.4359 114.5992 14.66615747 61531
IRIDIUM 91              
1 27373U 02005B   03097.52650489 -.00000376  00000-0 -72038-4 0  3847
2 27373  86.5741 293.8407 0001524 209.4733 150.6390 14.66604510 61530
IRIDIUM 94              
1 27374U 02005C   03097.53888956  .00001110  00000-0  19574-3 0  3919
2 27374  86.5713 293.8006 0001585  62.8922 297.2452 14.66618512 61537
IRIDIUM 95              
1 27375U 02005D   03096.93099031  .00000307  00000-0  51187-4 0  3836
2 27375  86.5731 294.0856 0001438 237.6802 122.4275 14.66602366 61442
IRIDIUM 96              
1 27376U 02005E   03097.55124317 -.00000166  00000-0 -34103-4 0  3825
2 27376  86.5757 293.7926 0001808 181.1100 179.0109 14.66606269 61530
IRIDIUM 97              
1 27450U 02031A   03097.21368497  .00000590  00000-0  10205-3 0  2700
2 27450  86.5802 325.6077 0002965  78.1807 281.9735 14.66617860 42626
IRIDIUM 98              
1 27451U 02031B   03096.93457411  .00001041  00000-0  18334-3 0  2730
2 27451  86.5789 325.7146 0003866  77.9752 282.1893 14.66622125 42589
